This is the latest recevied weather packets stored in our database for station/object KC5DAQ-29. If no packets are shown the sender has not sent any weather packets the latest 1 day(s).
| Time | Temp. | Humidity | Pressure | Rain* | Wind** | Luminosity | Snow |
|---|---|---|---|---|---|---|---|
| 1778047821 | 25° C | 100% | 1006.9 hPa | 0 mm | 0.45 m/s, 155° | 0 W/m² | - |
| 1778047760 | 25° C | 100% | 1006.9 hPa | 0 mm | 0.45 m/s, 155° | 0 W/m² | - |
| 1778047700 | 25° C | 100% | 1006.9 hPa | 0 mm | 0.45 m/s, 155° | 0 W/m² | - |
| 1778047640 | 25° C | 100% | 1006.9 hPa | 0 mm | 0.45 m/s, 155° | 0 W/m² | - |
| 1778047580 | 25° C | 100% | 1006.9 hPa | 0 mm | 0.45 m/s, 155° | 0 W/m² | - |
| 1778047520 | 25° C | 100% | 1006.9 hPa | 0 mm | 0.45 m/s, 155° | 0 W/m² | - |
| 1778047460 | 25° C | 100% | 1006.9 hPa | 0 mm | 0.45 m/s, 154° | 0 W/m² | - |
| 1778047400 | 25° C | 100% | 1006.9 hPa | 0 mm | 0.45 m/s, 157° | 0 W/m² | - |
| 1778047323 | 25° C | 100% | 1006.9 hPa | 0 mm | 0.89 m/s, 159° | 0 W/m² | - |
| 1778047262 | 25° C | 100% | 1006.8 hPa | 0 mm | 0.89 m/s, 158° | 0 W/m² | - |
| 1778047203 | 25° C | 100% | 1006.8 hPa | 0 mm | 0.45 m/s, 186° | 0 W/m² | - |
| 1778047143 | 25° C | 100% | 1006.7 hPa | 0 mm | 0.45 m/s, 171° | 0 W/m² | - |
| 1778047083 | 25° C | 100% | 1006.9 hPa | 0 mm | 0.45 m/s, 169° | 0 W/m² | - |
| 1778047021 | 25° C | 100% | 1006.8 hPa | 0 mm | 0.89 m/s, 169° | 0 W/m² | - |
| 1778046962 | 25° C | 100% | 1006.9 hPa | 0 mm | 0.89 m/s, 168° | 0 W/m² | - |
| 1778046904 | 25° C | 100% | 1006.8 hPa | 0 mm | 1.34 m/s, 145° | 0 W/m² | - |
| 1778046843 | 25° C | 100% | 1006.8 hPa | 0 mm | 1.34 m/s, 145° | 0 W/m² | - |
| 1778046784 | 25° C | 100% | 1006.8 hPa | 0 mm | 1.34 m/s, 145° | 0 W/m² | - |
| 1778046723 | 25° C | 100% | 1006.7 hPa | 0 mm | 1.34 m/s, 145° | 0 W/m² | - |
| 1778046663 | 25° C | 100% | 1006.7 hPa | 0 mm | 1.79 m/s, 162° | 0 W/m² | - |
| 1778046603 | 25° C | 100% | 1006.7 hPa | 0 mm | 1.79 m/s, 166° | 0 W/m² | - |
| 1778046543 | 25° C | 100% | 1006.6 hPa | 0 mm | 0.89 m/s, 183° | 0 W/m² | - |
| 1778046483 | 25° C | 100% | 1006.7 hPa | 0 mm | 0.45 m/s, 159° | 0 W/m² | - |
| 1778046422 | 25° C | 100% | 1006.7 hPa | 0 mm | 0.45 m/s, 140° | 0 W/m² | - |
| 1778046363 | 25° C | 100% | 1006.8 hPa | 0 mm | 0.45 m/s, 161° | 0 W/m² | - |
* Rain latest hour (hover to see other rain measurements)
** Current wind speed in m/s (hover to see current wind gust speed)